User: anonymous   Login
Location: Doux
(49.5045°N, 4.4321°E)
Time: 23:36:30
(UTC+00:00)
Language:

Cosmos 2251 Rocket - Orbit

View from above orbital plane
View from above orbital plane
View from above satellite
View from above satellite

Ground track
Ground track

The orbit data is extracted from the following two-line orbital elements,

1 22676U 93036B   24204.75934574  .00000616  00000-0  22659-3 0  9990
2 22676  74.0424 119.0076 0019689 233.0951 126.8397 14.34656276626998
Epoch (UTC): 22 July 2024 18:13:27
Eccentricity: 0.0019689
inclination: 74.0424°
perigee height: 762 km
apogee height: 790 km
right ascension of ascending node: 119.0076°
argument of perigee: 233.0951°
revolutions per day: 14.34656276
mean anomaly at epoch: 126.8397°
orbit number at epoch: 62699

The dashed part of the orbit path shows where the satellite is in the earth's shadow,  

DLR